カタログに戻る

FALCON 9 R/B

運用中HEO
NORAD 48839·ROCKET BODY·🇺🇸 United States

打ち上げ Jun 6, 2021 から Cape Canaveral Space Force Station

Loading…

次のパス (今後24時間)

TLE

最新Source: Space-Track

元期: Sep 14, 2026, 09:18 UTC

1 48839U 21049B   26257.38796660  .00026378  00000-0  86999-3 0  9995
2 48839  27.0174  99.3957 5080820  21.0925 354.0468  5.58869409 91957

AllMySatでFALCON 9 R/Bをリアルタイム追跡

Download on the App Store